Rbgn^[z[y[W
メイン
   新天体発見情報
     Comet P/2007 A2 = 2022 S2 (Christensen)
投稿するにはまず登録を

スレッド表示 | 古いものから 前のトピック | 次のトピック | 下へ
投稿者 スレッド
佐藤裕久
投稿日時: 2022-10-12 11:30
モデレータ
登録日: 2005-6-12
居住地: 日本
投稿: 2661
オンライン
Comet P/2007 A2 = 2022 S2 (Christensen)

Erwin Schwab (Egelsbach, ドイツ)の通報によると、9月27日と10月1日UT、スペイン Calar 
Altoにある0.8-m f/3 Schmidt望遠鏡で得たCCD画像からP/2007 A2 (IAUC 8794, 8796を参照) 
を検出した。12枚の60-秒露出で、二夜とも尾もコマもなかった。光度は21.0等〜20.5等で
あった。この検出には、R. KreskenとM. Micheliも携わった。
NK 1669の中野主一氏の予報に対する修正値は、Delta(T) = -1.33 daysであった。
MPC 75707のG. V. Williamsの予報に対する修正値は、Delta(T) = -1.52 daysであった。
彗星年表2022の佐藤裕久の軌道要素の修正値は、Delta(T) = -2.64 daysであった。

検出位置は次のとおり、

     2022 UT             R.A. (2000) Decl.       Mag.   Observer
     Sept.27.17130    8 51 05.35   +21 20 18.3   21.0   Schwab
          27.18063    8 51 06.07   +21 20 11.8   20.6     "
          27.18996    8 51 06.92   +21 20 05.5   20.5     "
     Oct.  1.17130    8 56 36.58   +20 36 35.9   20.8     "
           1.18063    8 56 37.25   +20 36 30.2   20.8     "
           1.18996    8 56 38.04   +20 36 23.5   20.9     "

MPCの連結軌道要素と位置推算表は次のとおり、

Orbital elements:
    P/2007 A2 (Christensen)                                                     
Epoch 2022 Aug. 9.0 TT = JDT 2459800.5                                          
T 2022 Nov. 27.52482 TT                                 Rudenko                 
q   2.7984561            (2000.0)            P               Q                  
n   0.06181642     Peri.  186.69411     -0.59973717     -0.70280189             
a   6.3348081      Node   300.91220     +0.75329344     -0.33457428             
e   0.5582414      Incl.   26.48394     +0.26993391     -0.62779738             
P  15.9                                                                         
From 96 observations 2007 Jan. 10-2022 Oct. 1, mean residual 0".9.              
                                                                                
Ephemeris:
Date    TT    R. A. (2000) Decl.     Delta      r    Elong.  Phase   m1
2022 09 08    08 22 37.8 +24 38 30   3.5168  2.8656    43.1    13.9  20.8
...
2022 09 23    08 45 09.9 +22 05 05   3.3497  2.8432    52.0    16.1  20.7
...
2022 10 01    08 56 22.3 +20 38 31   3.2538  2.8330    56.8    17.2  20.6
...
2022 10 07    09 04 21.6 +19 31 42   3.1792  2.8263    60.6    17.9  20.5
2022 10 08    09 05 39.3 +19 20 25   3.1666  2.8252    61.2    18.1  20.5
2022 10 09    09 06 56.4 +19 09 06   3.1539  2.8242    61.9    18.2  20.5
...
2022 10 15    09 14 24.8 +18 00 20   3.0768  2.8183    65.8    18.8  20.4
...
2022 10 23    09 23 43.2 +16 26 41   2.9715  2.8117    71.1    19.6  20.4
...
2022 11 07    09 38 51.8 +13 26 22   2.7691  2.8029    81.7    20.5  20.2

(MPEC 2022-T107、CBET 5177、oaa-comet 3842)

スレッド表示 | 古いものから 前のトピック | 次のトピック | トップ

投稿するにはまず登録を
 
© 1999 Tsutomu Seki.